Date_and_time,latitude,longitude,wind_speed,RelWindDirFrom,WindDirFrom,air_pressure,air_temperature,relative_humidity,Temp,platform_speed_wrt_ground,air_pressure_at_mean_sea_level,platform_orientation
2018-11-09 23:50,50.630455,-96.9807666666667,3.5,5.3,202,1001.44,-8.9,60,1.25,0.0,1030.62,90.0
2018-11-10 00:00,50.630455,-96.9807666666667,3.5,5.3,179,1001.31,-8.9,62,1.26,0.0,1030.50,0.0
2018-11-10 00:00,50.630455,-96.9807666666667,3.2,3.2,190,1001.22,-8.9,63,1.27,0.0,1030.42,38.0
2018-11-10 00:10,50.630455,-96.9807666666667,3.4,5.3,177,1001.08,-8.9,61,1.27,0.0,1030.28,38.0
2018-11-10 00:20,50.630455,-96.9807666666667,4.3,7.1,179,1000.90,-8.9,62,1.28,0.0,1030.10,38.0
2018-11-10 00:30,50.6304466666667,-96.98078,5.0,6.7,178,1000.81,-9.0,65,1.29,0.0,1030.01,38.0
2018-11-10 00:40,50.630445,-96.9807683333333,6.0,8.4,183,1000.71,-8.9,67,1.30,0.0,1029.90,38.0
2018-11-10 00:50,50.6304516666667,-96.980775,7.2,9.4,183,1000.57,-9.1,69,1.31,0.0,1029.76,38.0
2018-11-10 01:00,50.630455,-96.9807733333333,8.2,9.9,181,1000.44,-9.2,69,1.31,0.0,1029.64,270.0
2018-11-10 01:10,50.6304566666667,-96.980775,7.6,9.2,181,1000.44,-9.3,69,1.32,0.0,1029.65,270.0
2018-11-10 01:20,50.6304583333333,-96.980775,7.4,9.2,182,1000.37,-9.3,70,1.32,0.0,1029.58,270.0
2018-11-10 01:30,50.63046,-96.9807733333333,7.3,9.9,188,1000.28,-9.3,71,1.33,0.0,1029.48,270.0
2018-11-10 01:40,50.630465,-96.9807666666667,7.9,10.2,186,1000.21,-9.5,72,1.34,0.0,1029.41,270.0
2018-11-10 01:50,50.630465,-96.9807733333333,6.9,9.4,189,1000.16,-9.5,72,1.34,0.0,1029.37,270.0
2018-11-10 02:00,50.6304633333333,-96.98077,7.1,9.3,182,1000.00,-9.7,72,1.34,0.0,1029.21,360.0
2018-11-10 02:10,50.6304633333333,-96.98077,7.2,9.7,186,999.83,-9.7,73,1.34,0.0,1029.03,360.0
2018-11-10 02:20,50.6304633333333,-96.9807683333333,6.8,9.4,188,999.63,-9.8,75,1.35,0.0,1028.84,360.0
2018-11-10 02:30,50.6304616666667,-96.9807666666667,7.0,9.1,193,999.48,-9.9,74,1.35,0.0,1028.69,360.0
2018-11-10 02:40,50.6304633333333,-96.980755,7.2,8.9,196,999.37,-10.2,75,1.35,0.0,1028.61,360.0
2018-11-10 02:50,50.6304466666667,-96.9807316666667,7.3,9.2,191,999.30,-10.3,75,1.36,0.0,1028.54,360.0
2018-11-10 03:00,50.6304633333333,-96.980765,6.6,8.3,191,999.21,-10.2,77,1.37,0.0,1028.45,360.0
2018-11-10 03:10,50.6304583333333,-96.9807633333333,6.3,8.1,191,999.10,-10.1,75,1.37,0.0,1028.33,360.0
2018-11-10 03:20,50.6304566666667,-96.98076,6.9,8.5,190,999.00,-10.1,75,1.38,0.0,1028.23,360.0
2018-11-10 03:30,50.6304466666667,-96.9807566666667,7.4,9.4,186,998.92,-10.3,76,1.39,0.0,1028.16,360.0
2018-11-10 03:40,50.63046,-96.9807616666667,7.5,9.2,191,998.89,-10.4,76,1.39,0.0,1028.14,360.0
2018-11-10 03:50,50.6304583333333,-96.98076,8.2,10.5,191,998.82,-10.6,76,1.38,0.0,1028.09,360.0
2018-11-10 04:00,50.6304583333333,-96.98076,7.6,9.3,192,998.78,-10.5,76,1.38,0.0,1028.05,54.7
2018-11-10 04:10,50.6304583333333,-96.9807666666667,8.0,10.2,191,998.75,-10.4,76,1.38,0.0,1028.01,54.7
2018-11-10 04:20,50.63046,-96.980765,8.7,10.8,190,998.70,-10.5,77,1.39,0.0,1027.98,54.7
2018-11-10 04:30,50.630425,-96.9807583333333,8.2,10.8,191,998.66,-10.5,78,1.39,0.0,1027.95,54.7
2018-11-10 04:40,50.6304666666667,-96.9807633333333,7.8,10.0,185,998.55,-10.5,78,1.39,0.0,1027.85,54.7
2018-11-10 04:50,50.6304566666667,-96.9807616666667,8.1,10.2,185,998.47,-10.4,77,1.39,0.0,1027.75,54.7
2018-11-10 05:00,50.630455,-96.9807666666667,9.3,12.3,183,998.38,-10.3,76,1.40,0.0,1027.65,360.0
2018-11-10 05:10,50.6304583333333,-96.9807633333333,9.2,11.5,186,998.32,-10.3,77,1.41,0.0,1027.58,360.0
2018-11-10 05:20,50.6304566666667,-96.9807633333333,8.0,10.6,190,998.27,-10.3,78,1.41,0.0,1027.55,360.0
2018-11-10 05:30,50.6304566666667,-96.9807633333333,7.7,10.4,189,998.17,-10.5,77,1.41,0.0,1027.46,360.0
2018-11-10 05:40,50.6304566666667,-96.9807633333333,8.6,10.5,181,997.99,-10.4,78,1.41,0.0,1027.28,360.0
2018-11-10 05:50,50.6304566666667,-96.9807633333333,9.8,11.7,176,997.85,-10.5,77,1.41,0.0,1027.14,360.0
2018-11-10 06:00,50.6304566666667,-96.9807616666667,8.9,11.2,178,997.79,-10.4,79,1.40,0.0,1027.06,360.0
2018-11-10 06:10,50.6304566666667,-96.9807633333333,9.5,11.8,177,997.65,-10.5,78,1.39,0.0,1026.93,360.0
2018-11-10 06:20,50.6304566666667,-96.9807633333333,10.4,12.6,175,997.51,-10.6,79,1.39,0.0,1026.79,360.0
2018-11-10 06:30,50.6304566666667,-96.9807633333333,10.7,12.8,175,997.36,-10.7,80,1.39,0.0,1026.64,360.0
2018-11-10 06:40,50.6304566666667,-96.9807633333333,11.3,13.7,175,997.23,-10.7,81,1.39,0.0,1026.51,360.0
2018-11-10 06:50,50.630455,-96.9807633333333,11.2,13.4,175,997.09,-10.7,82,1.39,0.0,1026.36,360.0
2018-11-10 07:00,50.630455,-96.9807633333333,11.8,14.2,178,997.08,-10.7,84,1.38,0.0,1026.35,192.6
2018-11-10 07:10,50.6304516666667,-96.9807683333333,11.5,14.1,182,997.11,-11.0,85,1.38,0.0,1026.40,192.6
2018-11-10 07:20,50.6304416666667,-96.9807616666667,10.9,13.3,184,997.12,-11.1,86,1.37,0.0,1026.42,192.6
2018-11-10 07:30,50.6304466666667,-96.9807683333333,11.1,13.8,183,997.02,-11.3,87,1.36,0.0,1026.32,192.6
2018-11-10 07:40,50.6304466666667,-96.9807683333333,11.0,14.2,180,996.89,-11.5,87,1.36,0.0,1026.19,192.6
2018-11-10 07:50,50.6304466666667,-96.9807683333333,11.1,13.3,181,996.79,-11.5,88,1.36,0.0,1026.09,192.6
2018-11-10 08:00,50.6304483333333,-96.9807683333333,10.6,13.6,179,996.72,-11.6,89,1.36,0.0,1026.03,142.0
2018-11-10 08:10,50.63045,-96.98077,11.8,13.9,177,996.58,-11.6,89,1.37,0.0,1025.90,142.0
2018-11-10 08:20,50.6304516666667,-96.9807683333333,11.7,15.0,177,996.49,-11.5,89,1.38,0.0,1025.80,142.0
2018-11-10 08:30,50.6304516666667,-96.9807683333333,11.5,14.1,175,996.36,-11.4,89,1.38,0.0,1025.66,142.0
2018-11-10 08:40,50.6304583333333,-96.9807833333333,11.3,13.8,178,996.30,-11.4,89,1.39,0.0,1025.61,142.0
2018-11-10 08:50,50.6304616666667,-96.9807766666667,11.7,14.7,178,996.25,-11.6,90,1.39,0.0,1025.56,142.0
2018-11-10 09:00,50.6304583333333,-96.9807766666667,11.7,14.9,178,996.14,-11.8,90,1.39,0.0,1025.48,305.3
2018-11-10 09:10,50.6304533333333,-96.9807683333333,11.2,13.8,177,996.02,-11.8,90,1.38,0.0,1025.36,305.3
2018-11-10 09:20,50.6304483333333,-96.98077,11.6,13.9,177,995.92,-11.9,90,1.38,0.0,1025.27,305.3
2018-11-10 09:30,50.63045,-96.980785,11.6,14.2,179,995.82,-12.0,90,1.37,0.0,1025.18,305.3
2018-11-10 09:40,50.6304466666667,-96.9807716666667,11.6,14.4,175,995.63,-11.9,89,1.36,0.0,1024.99,305.3
2018-11-10 09:50,50.6304483333333,-96.9807633333333,11.8,14.4,175,995.46,-11.9,89,1.36,0.0,1024.81,305.3
2018-11-10 10:00,50.6304466666667,-96.980765,12.5,15.7,174,995.31,-11.9,88,1.37,0.0,1024.66,142.0
2018-11-10 10:10,50.6304466666667,-96.9807633333333,13.6,16.1,176,995.22,-11.8,87,1.38,0.0,1024.56,142.0
2018-11-10 10:20,50.6304466666667,-96.980765,14.1,17.3,174,995.12,-11.8,85,1.38,0.0,1024.46,142.0
2018-11-10 10:30,50.6304483333333,-96.980765,14.9,18.6,175,994.93,-11.9,84,1.39,0.0,1024.26,142.0
2018-11-10 10:40,50.63045,-96.9807666666667,14.7,18.0,174,994.79,-12.0,85,1.39,0.0,1024.13,142.0
2018-11-10 10:50,50.63045,-96.9807683333333,16.0,20.2,171,994.60,-11.8,86,1.39,0.0,1023.93,142.0
2018-11-10 11:00,50.630455,-96.9808,16.1,20.9,172,994.50,-11.8,87,1.39,0.0,1023.84,283.7
2018-11-10 11:10,50.630435,-96.9807783333333,15.7,19.5,172,994.36,-11.7,87,1.38,0.0,1023.69,283.7
2018-11-10 11:20,50.63044,-96.9807766666667,16.2,20.6,174,994.27,-11.6,86,1.36,0.0,1023.60,283.7
2018-11-10 11:30,50.6304433333333,-96.9807716666667,16.1,19.9,172,994.22,-11.7,86,1.35,0.0,1023.54,283.7
2018-11-10 11:40,50.6304433333333,-96.9807683333333,15.4,18.6,175,994.21,-11.9,86,1.36,0.0,1023.54,283.7
2018-11-10 11:50,50.6304433333333,-96.9807666666667,15.2,19.3,175,994.20,-12.1,86,1.37,0.0,1023.54,283.7
2018-11-10 12:00,50.6304516666667,-96.9807783333333,14.7,18.2,175,994.13,-12.2,86,1.38,0.0,1023.48,240.8
2018-11-10 12:10,50.6304583333333,-96.9807716666667,15.1,20.3,175,993.99,-12.2,86,1.39,0.0,1023.34,240.8
2018-11-10 12:20,50.630455,-96.9807733333333,15.0,19.6,174,993.85,-12.3,86,1.39,0.0,1023.20,240.8
2018-11-10 12:30,50.6304533333333,-96.980775,15.9,18.8,174,993.69,-12.3,86,1.40,0.0,1023.04,240.8
2018-11-10 12:40,50.6304533333333,-96.9807783333333,15.2,19.5,172,993.58,-12.3,87,1.41,0.0,1022.92,240.8
2018-11-10 12:50,50.6304533333333,-96.9807783333333,16.0,20.1,171,993.43,-12.1,88,1.41,0.0,1022.75,240.8
2018-11-10 13:00,50.6304516666667,-96.98078,17.4,21.5,171,993.31,-12.0,87,1.42,0.0,1022.61,293.6
2018-11-10 13:10,50.6304516666667,-96.98078,16.8,20.8,172,993.26,-11.9,88,1.41,0.0,1022.55,293.6
2018-11-10 13:20,50.6304516666667,-96.9807783333333,17.2,21.0,173,993.17,-11.8,88,1.41,0.0,1022.46,293.6
2018-11-10 13:30,50.6304516666667,-96.9807783333333,17.8,22.4,171,993.05,-11.7,88,1.40,0.0,1022.35,293.6
2018-11-10 13:40,50.6304516666667,-96.9807783333333,18.8,22.3,172,992.95,-11.8,86,1.39,0.0,1022.26,293.6
2018-11-10 13:50,50.6304583333333,-96.98079,16.9,21.2,173,992.92,-12.0,87,1.38,0.0,1022.23,293.6
2018-11-10 14:00,50.63045,-96.9807816666667,15.7,21.3,173,992.86,-11.9,87,1.38,0.0,1022.18,90.0
2018-11-10 14:10,50.63045,-96.9807783333333,16.8,20.1,173,992.80,-12.0,87,1.38,0.0,1022.12,90.0
2018-11-10 14:20,50.63045,-96.9807766666667,16.5,20.6,174,992.87,-11.9,86,1.39,0.0,1022.19,90.0
2018-11-10 14:30,50.6304633333333,-96.9807883333333,18.8,23.8,173,992.79,-11.9,85,1.39,0.0,1022.11,90.0
2018-11-10 14:40,50.6304383333333,-96.9807833333333,19.6,24.1,170,992.71,-11.7,84,1.39,0.0,1022.00,90.0
2018-11-10 14:50,50.6304333333333,-96.9807883333333,19.2,24.0,174,992.68,-11.8,83,1.40,0.0,1021.97,90.0
2018-11-10 15:00,50.630435,-96.9807816666667,16.0,20.3,173,992.82,-11.6,83,1.40,0.0,1022.10,360.0
2018-11-10 15:10,50.6304366666667,-96.9807833333333,16.6,21.9,174,992.79,-11.6,82,1.40,0.0,1022.06,360.0
2018-11-10 15:20,50.630435,-96.9807816666667,16.7,21.2,172,992.72,-11.6,81,1.39,0.0,1021.99,360.0
2018-11-10 15:30,50.630435,-96.9807816666667,17.1,21.0,171,992.64,-11.4,81,1.37,0.0,1021.90,360.0
2018-11-10 15:40,50.6304383333333,-96.980785,17.3,21.8,170,992.63,-11.3,82,1.36,0.0,1021.88,360.0
2018-11-10 15:50,50.63044,-96.9807833333333,19.6,23.3,169,992.54,-11.2,80,1.35,0.0,1021.79,360.0
2018-11-10 16:00,50.6304366666667,-96.98078,17.6,23.1,171,992.59,-11.2,79,1.35,0.0,1021.85,360.0
2018-11-10 16:10,50.6304366666667,-96.9807783333333,18.4,21.9,168,992.53,-11.0,79,1.35,0.0,1021.77,360.0
2018-11-10 16:20,50.6304366666667,-96.9807783333333,18.1,21.3,168,992.52,-10.9,79,1.35,0.0,1021.76,360.0
2018-11-10 16:30,50.63045,-96.9807783333333,18.3,22.0,170,992.51,-10.7,79,1.36,0.0,1021.71,360.0
2018-11-10 16:40,50.6304483333333,-96.980775,17.3,21.3,168,992.52,-10.5,77,1.36,0.0,1021.71,360.0
2018-11-10 16:50,50.6304483333333,-96.980775,18.7,23.9,167,992.50,-10.4,77,1.35,0.0,1021.69,360.0
2018-11-10 17:00,50.6304466666667,-96.980775,19.1,23.6,171,992.49,-10.3,76,1.35,0.0,1021.67,125.3
2018-11-10 17:10,50.630445,-96.9807716666667,18.8,22.9,166,992.50,-10.2,75,1.35,0.0,1021.67,125.3
2018-11-10 17:20,50.6304416666667,-96.9807716666667,17.8,22.2,166,992.50,-10.1,74,1.35,0.0,1021.66,125.3
2018-11-10 17:30,50.63044,-96.9807716666667,18.5,21.9,167,992.52,-10.1,73,1.35,0.0,1021.67,125.3
2018-11-10 17:40,50.6304383333333,-96.9807716666667,17.2,21.4,167,992.49,-10.1,74,1.36,0.0,1021.63,125.3
2018-11-10 17:50,50.6304383333333,-96.9807783333333,19.2,22.1,166,992.30,-10.2,73,1.36,0.0,1021.44,125.3
2018-11-10 18:00,50.63042,-96.9807733333333,17.5,20.3,165,992.23,-10.0,75,1.36,0.0,1021.35,147.5
2018-11-10 18:10,50.63044,-96.980795,16.8,20.9,164,992.16,-9.8,75,1.36,0.0,1021.26,147.5
2018-11-10 18:20,50.6304383333333,-96.9807766666667,19.0,23.8,165,991.95,-9.6,73,1.35,0.0,1021.02,147.5
2018-11-10 18:30,50.630435,-96.9807716666667,16.7,21.0,165,991.91,-9.4,75,1.35,0.0,1020.95,147.5
2018-11-10 18:40,50.6304366666667,-96.98077,15.5,19.6,163,991.81,-9.0,76,1.34,0.0,1020.83,147.5
2018-11-10 18:50,50.6304366666667,-96.98077,15.4,20.3,157,991.75,-8.8,77,1.34,0.0,1020.75,147.5
2018-11-10 19:00,50.630435,-96.9807716666667,17.0,22.0,160,991.68,-8.6,76,1.34,0.0,1020.66,90.0
2018-11-10 19:10,50.6304433333333,-96.9807716666667,17.7,21.4,159,991.54,-8.6,73,1.34,0.0,1020.51,90.0
2018-11-10 19:20,50.6304433333333,-96.980775,16.8,21.0,158,991.39,-8.5,74,1.35,0.0,1020.35,90.0
2018-11-10 19:30,50.6304433333333,-96.980775,17.5,22.0,160,991.25,-8.3,74,1.35,0.0,1020.19,90.0
2018-11-10 19:40,50.6304433333333,-96.980775,17.9,22.8,155,991.08,-8.3,72,1.35,0.0,1020.03,90.0
2018-11-10 19:50,50.630455,-96.9807716666667,18.2,23.6,158,991.06,-8.1,69,1.35,0.0,1019.98,90.0
2018-11-10 20:00,50.6304566666667,-96.9807683333333,17.1,25.3,160,991.03,-7.8,68,1.35,0.0,1019.93,48.3
2018-11-10 20:10,50.6304566666667,-96.98077,17.1,20.2,149,990.97,-7.9,67,1.35,0.0,1019.85,48.3
2018-11-10 20:20,50.630455,-96.9807666666667,16.3,21.4,154,990.91,-7.7,66,1.35,0.0,1019.78,48.3
2018-11-10 20:30,50.6304566666667,-96.9807683333333,16.5,20.8,156,990.76,-7.6,65,1.35,0.0,1019.59,48.3
2018-11-10 20:40,50.6304433333333,-96.9807516666667,15.9,20.8,156,990.63,-7.5,65,1.35,0.0,1019.44,48.3
2018-11-10 20:50,50.6304516666667,-96.98076,16.7,20.7,154,990.51,-7.8,64,1.35,0.0,1019.32,48.3
2018-11-10 21:00,50.6304516666667,-96.980765,16.3,20.8,153,990.53,-7.7,64,1.35,0.0,1019.34,360.0
2018-11-10 21:10,50.63045,-96.9807616666667,16.3,20.9,156,990.47,-7.6,64,1.34,0.0,1019.27,360.0
2018-11-10 21:20,50.6304516666667,-96.9807616666667,17.1,21.1,166,990.47,-7.5,62,1.35,0.0,1019.25,360.0
2018-11-10 21:30,50.6304516666667,-96.9807616666667,16.9,21.1,169,990.43,-7.4,59,1.35,0.0,1019.20,360.0
2018-11-10 21:40,50.6304416666667,-96.9807633333333,14.3,17.8,170,990.47,-7.1,61,1.36,0.0,1019.22,360.0
2018-11-10 21:50,50.6304416666667,-96.980765,14.4,18.7,166,990.52,-6.7,59,1.37,0.0,1019.24,360.0
2018-11-10 22:00,50.630435,-96.9807583333333,13.7,18.3,166,990.55,-6.7,60,1.36,0.0,1019.26,90.0
2018-11-10 22:10,50.63044,-96.9807616666667,15.5,18.0,164,990.54,-6.9,60,1.36,0.0,1019.25,90.0
2018-11-10 22:20,50.6304433333333,-96.980765,13.9,18.6,170,990.58,-7.1,61,1.37,0.0,1019.30,90.0
2018-11-10 22:30,50.63044,-96.980765,11.1,14.9,180,990.64,-7.4,60,1.37,0.0,1019.38,90.0
2018-11-10 22:40,50.6304416666667,-96.9807683333333,10.0,15.6,187,990.73,-7.5,60,1.37,0.0,1019.50,90.0
2018-11-10 22:50,50.6304433333333,-96.9807683333333,10.3,13.8,185,990.82,-7.7,59,1.38,0.0,1019.59,90.0
2018-11-10 23:00,50.630445,-96.9807683333333,10.6,15.4,180,990.82,-7.8,60,1.38,0.0,1019.58,360.0
2018-11-10 23:10,50.6304433333333,-96.9807683333333,11.0,13.8,180,990.81,-7.9,62,1.39,0.0,1019.57,360.0
2018-11-10 23:20,50.6304433333333,-96.9807683333333,11.8,16.5,180,990.83,-7.9,64,1.39,0.0,1019.59,360.0
2018-11-10 23:30,50.6304433333333,-96.98077,11.1,15.0,179,990.89,-7.9,67,1.39,0.0,1019.64,360.0
